Location: Grossmotten
(48.5500°N, 15.3833°E)
Time: 18:56:46
(UTC+00:00)

COBE Rocket - Pass Details

Date: 15 November 2019
Orbit: 679 x 783 km, 97.1° (Epoch: 11 December)

Event Time Altitude Azimuth Distance (km) Brightness Sun altitude
Rises 03:47:16 0° 168° (SSE) 3,255 7.4 -22.8°
Reaches altitude 10° 03:49:35 10° 169° (S) 2,327 6.6 -22.4°
Maximum altitude 03:54:45 82° 257° (WSW) 784 3.9 -21.6°
Drops below altitude 10° 03:59:52 10° 346° (NNW) 2,300 6.3 -20.7°
Sets 04:02:09 0° 348° (NNW) 3,215 7.1 -20.4°
